Weather History for Zapata, TX

Change the Weather History Date:

Saturday, August 17, 2013

  Actual Average (KLRD) Record (KLRD)
Temperature  
Mean Temperature 90 °F 89 °F  
Max Temperature 103 °F 100 °F 109 °F (1997)
Min Temperature 77 °F 77 °F 60 °F (1908)
Degree Days  
Heating Degree Days 0 0  
Month to date heating degree days 0  
Since 1 June heating degree days 0  
Since 1 July heating degree days 0  
Cooling Degree Days 25 24  
Month to date cooling degree days 408  
Year to date cooling degree days 2924  
Since 1 June cooling degree days 1781  
Growing Degree Days 40 (Base 50)    
Moisture  
Dew Point 61 °F    
Average Humidity 42    
Maximum Humidity 78    
Minimum Humidity 15    
Precipitation  
Precipitation 0.00 in 0.06 in 1.14 in (2008)
Month to date precipitation 0.73  
Year to date precipitation 11.84  
Sea Level Pressure  
Sea Level Pressure 29.93 in    
Wind  
Wind Speed 7 mph (ESE)    
Max Wind Speed 18 mph    
Max Gust Speed 25 mph    
Visibility 10 miles    
Events      
T = Trace of Precipitation, MM = Missing Value Source: NWS Daily Summary

Daily Weather History Graph

Daily Weather History Graph

Search for Another Location

Airport:

Trip Planner

Search our weather history database for the weather conditions in past years. The results will help you decide how hot, cold, wet, or windy it might be!

Date:

Astronomy

Aug. 17, 2013 Rise Set
Actual Time 7:09 AM CDT 8:11 PM CDT
Civil Twilight 6:45 AM CDT 8:36 PM CDT
Nautical Twilight 6:16 AM CDT 9:04 PM CDT
Astronomical Twilight 5:47 AM CDT 9:34 PM CDT
Moon 5:20 PM CDT (8/17) 3:24 AM CDT (8/17)
Length of Visible Light 13h 50m
Length of Day
13h 02m
Waxing Gibbous, 84% of the Moon is Illuminated
Aug 17
Waxing Gibbous
Aug 20
Full
Aug 28
Last Quarter
Sep 5
New
Sep 12
First Quarter

Hourly Weather History & Observations

Time (CDT) Temp. Heat Index Dew Point Humidity Pressure Visibility Wind Dir Wind Speed Gust Speed Precip Events Conditions
12:15 AM 86.2 °F 88.4 °F 66.4 °F 51% 29.95 in 10.0 mi SE 8.1 mph - N/A   Clear
12:35 AM 86.0 °F 88.5 °F 66.7 °F 52% 29.95 in 10.0 mi SE 5.8 mph - N/A   Clear
12:55 AM 85.5 °F 88.2 °F 67.1 °F 54% 29.95 in 10.0 mi SE 6.9 mph - N/A   Clear
1:15 AM 85.1 °F 88.2 °F 67.6 °F 56% 29.96 in 10.0 mi SE 8.1 mph - N/A   Clear
1:35 AM 84.4 °F 87.6 °F 68.0 °F 58% 29.96 in 10.0 mi SE 5.8 mph - N/A   Clear
1:55 AM 84.2 °F 87.6 °F 68.4 °F 59% 29.95 in 10.0 mi SSE 9.2 mph - N/A   Clear
2:15 AM 83.8 °F 87.0 °F 68.2 °F 59% 29.95 in 10.0 mi SE 6.9 mph - N/A   Clear
2:35 AM 83.3 °F 86.4 °F 68.2 °F 60% 29.95 in 10.0 mi SE 8.1 mph - N/A   Clear
2:55 AM 82.8 °F 85.8 °F 68.2 °F 61% 29.94 in 10.0 mi SE 8.1 mph - N/A   Clear
3:15 AM 82.6 °F 85.7 °F 68.4 °F 62% 29.94 in 10.0 mi ESE 6.9 mph - N/A   Clear
3:35 AM 82.0 °F 85.3 °F 68.9 °F 64% 29.94 in 10.0 mi ESE 6.9 mph - N/A   Clear
3:55 AM 81.5 °F 84.6 °F 68.9 °F 65% 29.94 in 10.0 mi ESE 8.1 mph - N/A   Clear
4:15 AM 81.1 °F 84.4 °F 69.1 °F 67% 29.95 in 10.0 mi East 5.8 mph - N/A   Clear
4:35 AM 80.6 °F 83.6 °F 69.1 °F 68% 29.94 in 10.0 mi ESE 6.9 mph - N/A   Clear
4:55 AM 80.2 °F 83.2 °F 69.4 °F 69% 29.93 in 10.0 mi ESE 5.8 mph - N/A   Clear
5:15 AM 79.7 °F - 69.8 °F 72% 29.93 in 10.0 mi ESE 4.6 mph - N/A   Clear
5:35 AM 79.2 °F - 69.8 °F 73% 29.93 in 10.0 mi ESE 4.6 mph - N/A   Clear
5:55 AM 78.8 °F - 70.0 °F 74% 29.93 in 10.0 mi ESE 3.5 mph - N/A   Clear
6:15 AM 78.3 °F - 70.0 °F 76% 29.93 in 10.0 mi ESE 4.6 mph - N/A   Clear
6:35 AM 78.1 °F - 70.3 °F 77% 29.94 in 10.0 mi ESE 3.5 mph - N/A   Clear
6:55 AM 78.1 °F - 70.7 °F 78% 29.94 in 10.0 mi East 4.6 mph - N/A   Clear
7:15 AM 77.9 °F - 70.7 °F 78% 29.94 in 10.0 mi ESE 5.8 mph - N/A   Clear
7:35 AM 78.3 °F - 71.1 °F 78% 29.94 in 7.0 mi East 3.5 mph - N/A   Clear
7:55 AM 79.2 °F - 71.2 °F 77% 29.95 in 10.0 mi ESE 5.8 mph - N/A   Clear
8:15 AM 80.2 °F 83.7 °F 71.1 °F 73% 29.96 in 10.0 mi East 6.9 mph - N/A   Clear
8:35 AM 82.4 °F 86.7 °F 71.1 °F 68% 29.96 in 10.0 mi ESE 4.6 mph - N/A   Clear
8:55 AM 83.7 °F 88.0 °F 70.5 °F 64% 29.96 in 10.0 mi ESE 3.5 mph - N/A   Clear
9:15 AM 85.1 °F 89.1 °F 69.4 °F 59% 29.96 in 10.0 mi SE 3.5 mph - N/A   Clear
9:35 AM 86.9 °F 91.0 °F 68.9 °F 55% 29.97 in 10.0 mi SE 3.5 mph - N/A   Clear
9:55 AM 89.4 °F 93.1 °F 68.0 °F 49% 29.97 in 10.0 mi Calm Calm - N/A   Clear
10:15 AM 91.0 °F 93.8 °F 66.6 °F 44% 29.97 in 10.0 mi ESE 3.5 mph - N/A   Clear
10:35 AM 92.3 °F 93.8 °F 63.7 °F 39% 29.97 in 10.0 mi East 4.6 mph - N/A   Clear
10:55 AM 94.1 °F 95.0 °F 63.0 °F 35% 29.97 in 10.0 mi Calm Calm - N/A   Clear
11:15 AM 95.0 °F 95.2 °F 60.4 °F 32% 29.97 in 10.0 mi Calm Calm - N/A   Clear
11:35 AM 96.8 °F 96.2 °F 58.8 °F 28% 29.97 in 10.0 mi Calm Calm - N/A   Clear
11:55 AM 97.3 °F 95.5 °F 55.4 °F 24% 29.97 in 10.0 mi NE 5.8 mph - N/A   Scattered Clouds
12:15 PM 99.3 °F 97.8 °F 55.8 °F 23% 29.96 in 10.0 mi SE 8.1 mph - N/A   Scattered Clouds
12:35 PM 98.2 °F 96.3 °F 55.0 °F 23% 29.95 in 10.0 mi ESE 6.9 mph - N/A   Scattered Clouds
12:55 PM 99.0 °F 97.3 °F 55.0 °F 23% 29.95 in 10.0 mi ESE 4.6 mph - N/A   Scattered Clouds
1:15 PM 96.4 °F 94.6 °F 55.2 °F 25% 29.94 in 10.0 mi NNE 3.5 mph - N/A   Mostly Cloudy
1:35 PM 101.1 °F 99.4 °F 53.8 °F 21% 29.93 in 10.0 mi NNE 6.9 mph - N/A   Mostly Cloudy
1:55 PM 101.5 °F 99.4 °F 53.1 °F 20% 29.93 in 10.0 mi ESE 5.8 mph - N/A   Scattered Clouds
2:15 PM 100.8 °F 98.5 °F 53.1 °F 20% 29.92 in 10.0 mi North 6.9 mph - N/A   Scattered Clouds
2:35 PM 100.9 °F 99.1 °F 54.3 °F 21% 29.91 in 10.0 mi East 12.7 mph 19.6 mph N/A   Scattered Clouds
2:55 PM 102.2 °F 100.4 °F 53.8 °F 20% 29.90 in 10.0 mi ESE 5.8 mph - N/A   Scattered Clouds
3:15 PM 102.9 °F - 52.2 °F 18% 29.89 in 10.0 mi East 6.9 mph 16.1 mph N/A   Scattered Clouds
3:35 PM 101.8 °F - 52.7 °F 19% 29.88 in 10.0 mi East 9.2 mph - N/A   Scattered Clouds
3:55 PM 103.3 °F 101.4 °F 53.6 °F 19% 29.87 in 10.0 mi NE 11.5 mph 16.1 mph N/A   Clear
4:15 PM 102.0 °F - 52.7 °F 19% 29.86 in 10.0 mi NNE 6.9 mph - N/A   Clear
4:35 PM 103.1 °F - 52.5 °F 18% 29.86 in 10.0 mi ENE 11.5 mph 18.4 mph N/A   Scattered Clouds
4:55 PM 102.7 °F - 52.0 °F 18% 29.85 in 10.0 mi East 9.2 mph 16.1 mph N/A   Scattered Clouds
5:15 PM 103.6 °F - 50.7 °F 17% 29.84 in 10.0 mi ENE 13.8 mph 20.7 mph N/A   Scattered Clouds
5:35 PM 101.7 °F - 50.2 °F 18% 29.85 in 10.0 mi East 5.8 mph 20.7 mph N/A   Scattered Clouds
5:55 PM 102.6 °F - 48.9 °F 16% 29.85 in 10.0 mi NE 6.9 mph 18.4 mph N/A   Clear
6:15 PM 103.3 °F - 46.9 °F 15% 29.85 in 10.0 mi NE 9.2 mph - N/A   Scattered Clouds
6:35 PM 102.2 °F - 48.0 °F 16% 29.85 in 10.0 mi ENE 11.5 mph 16.1 mph N/A   Scattered Clouds
6:55 PM 101.3 °F - 48.4 °F 17% 29.85 in 10.0 mi East 8.1 mph - N/A   Scattered Clouds
7:15 PM 100.0 °F - 48.7 °F 18% 29.85 in 10.0 mi East 6.9 mph - N/A   Scattered Clouds
7:35 PM 99.7 °F - 47.7 °F 17% 29.85 in 10.0 mi East 9.2 mph - N/A   Scattered Clouds
7:55 PM 98.6 °F - 48.4 °F 18% 29.86 in 10.0 mi East 5.8 mph - N/A   Scattered Clouds
8:15 PM 95.9 °F 94.9 °F 57.6 °F 28% 29.87 in 10.0 mi ESE 15.0 mph 20.7 mph N/A   Scattered Clouds
8:35 PM 93.9 °F 93.6 °F 60.3 °F 32% 29.89 in 10.0 mi ESE 13.8 mph 23.0 mph N/A   Mostly Cloudy
8:55 PM 92.1 °F 92.4 °F 61.9 °F 36% 29.90 in 10.0 mi ESE 17.3 mph 23.0 mph N/A   Mostly Cloudy
9:15 PM 90.3 °F 90.2 °F 61.0 °F 37% 29.91 in 10.0 mi ESE 15.0 mph 23.0 mph N/A   Scattered Clouds
9:35 PM 89.6 °F 88.9 °F 59.4 °F 36% 29.93 in 10.0 mi ESE 18.4 mph 25.3 mph N/A   Clear
9:55 PM 88.7 °F 87.8 °F 58.8 °F 36% 29.94 in 10.0 mi ESE 13.8 mph 21.9 mph N/A   Clear
10:15 PM 88.0 °F 87.1 °F 58.6 °F 37% 29.95 in 10.0 mi ESE 10.4 mph 20.7 mph N/A   Clear
10:35 PM 87.1 °F 86.5 °F 59.2 °F 39% 29.96 in 10.0 mi ESE 10.4 mph - N/A   Clear
10:55 PM 86.4 °F 85.9 °F 59.5 °F 40% 29.96 in 10.0 mi ESE 6.9 mph - N/A   Clear
11:15 PM 86.0 °F 85.4 °F 58.8 °F 40% 29.97 in 10.0 mi ESE 10.4 mph 16.1 mph N/A   Clear
11:35 PM 85.1 °F 84.4 °F 58.3 °F 40% 29.97 in 10.0 mi ESE 8.1 mph - N/A   Clear
11:55 PM 84.6 °F 83.9 °F 57.7 °F 40% 29.97 in 10.0 mi ESE 10.4 mph 17.3 mph N/A   Clear